Louisville Bowman, KY

9:23 PM EDT on May 25, 2017 (GMT -0400)
Bowman

Weather History for KLOU - November, 2014

Change the Weather History Date:

Monday, November 10, 2014

  Actual Average Record
Temperature  
Mean Temperature 51 °F 50 °F  
Max Temperature 65 °F 59 °F 78 °F (2002)
Min Temperature 36 °F 41 °F 21 °F (1957)
Degree Days  
Heating Degree Days 14 15  
Month to date heating degree days 175 135  
Since 1 July heating degree days 436 411  
Cooling Degree Days 0 0  
Month to date cooling degree days 0 0  
Year to date cooling degree days 1536 1442  
Moisture  
Dew Point 33 °F    
Average Humidity 55    
Maximum Humidity 82    
Minimum Humidity 28    
Precipitation  
Precipitation 0.00 in 0.10 in 1.23 in (1966)
Month to date precipitation 0.16 1.19  
Year to date precipitation 38.04 39.11  
Sea Level Pressure  
Sea Level Pressure 29.90 in    
Wind  
Wind Speed 7 mph (South)    
Max Wind Speed 17 mph    
Max Gust Speed 23 mph    
Visibility 10 miles    
Events      
T = Trace of Precipitation, MM = Missing Value Source: NWS Daily Summary

Daily Weather History Graph

Daily Weather History Graph

Search for Another Location

Airport or City:

Trip Planner

Search our weather history database for the weather conditions in past years. The results will help you decide how hot, cold, wet, or windy it might be!

Date:

Astronomy

Nov. 10, 2014 Rise Set
Actual Time 7:18 AM EST 5:34 PM EST
Civil Twilight 6:50 AM EST 6:02 PM EST
Nautical Twilight 6:18 AM EST 6:33 PM EST
Astronomical Twilight 5:47 AM EST 7:04 PM EST
Moon 9:01 PM EST (11/10) 10:39 AM EST (11/10)
Length of Visible Light 11h 11m
Length of Day
10h 15m
Waning Gibbous, 85% of the Moon is Illuminated
Nov 10
Waning Gibbous
Nov 14
Last Quarter
Nov 22
New
Nov 29
First Quarter
Dec 6
Full

Hourly Weather History & Observations

Time (EST) Temp. Windchill Dew Point Humidity Pressure Visibility Wind Dir Wind Speed Gust Speed Precip Events Conditions
12:53 AM 42.1 °F 40.2 °F 32.0 °F 67% 29.97 in 10.0 mi SSE 3.5 mph - N/A   Clear
1:53 AM 42.1 °F - 32.0 °F 67% 29.97 in 10.0 mi Calm Calm - N/A   Clear
2:53 AM 37.9 °F - 32.0 °F 79% 29.97 in 10.0 mi Calm Calm - N/A   Clear
3:53 AM 39.0 °F - 32.0 °F 76% 29.98 in 10.0 mi Calm Calm - N/A   Clear
4:53 AM 39.0 °F 36.8 °F 32.0 °F 76% 29.98 in 10.0 mi SE 3.5 mph - N/A   Clear
5:53 AM 37.0 °F - 30.9 °F 79% 29.99 in 10.0 mi Calm Calm - N/A   Clear
6:53 AM 37.9 °F 34.4 °F 30.9 °F 76% 29.99 in 10.0 mi SE 4.6 mph - N/A   Clear
7:53 AM 39.9 °F 37.8 °F 32.0 °F 73% 30.00 in 10.0 mi SE 3.5 mph - N/A   Clear
8:53 AM 45.0 °F - 35.1 °F 68% 29.99 in 10.0 mi Calm Calm - N/A   Clear
9:53 AM 50.0 °F - 36.0 °F 59% 29.99 in 10.0 mi SSE 9.2 mph - N/A   Clear
10:53 AM 54.0 °F - 36.0 °F 51% 29.98 in 10.0 mi South 10.4 mph - N/A   Clear
11:53 AM 57.0 °F - 37.0 °F 47% 29.96 in 10.0 mi SSW 10.4 mph 19.6 mph N/A   Clear
12:53 PM 61.0 °F - 37.0 °F 41% 29.92 in 10.0 mi South 13.8 mph 19.6 mph N/A   Clear
1:53 PM 63.0 °F - 36.0 °F 37% 29.87 in 10.0 mi SSE 11.5 mph - N/A   Clear
2:53 PM 64.0 °F - 34.0 °F 33% 29.85 in 10.0 mi South 9.2 mph - N/A   Clear
3:53 PM 64.9 °F - 32.0 °F 29% 29.83 in 10.0 mi South 13.8 mph 19.6 mph N/A   Clear
4:53 PM 64.0 °F - 30.9 °F 29% 29.81 in 10.0 mi South 11.5 mph - N/A   Clear
5:53 PM 62.1 °F - 30.0 °F 30% 29.79 in 10.0 mi South 8.1 mph - N/A   Clear
6:53 PM 60.1 °F - 30.0 °F 32% 29.79 in 10.0 mi SSE 6.9 mph - N/A   Clear
7:53 PM 57.9 °F - 30.0 °F 35% 29.80 in 10.0 mi SSE 5.8 mph - N/A   Clear
8:53 PM 57.0 °F - 30.0 °F 36% 29.80 in 10.0 mi South 4.6 mph - N/A   Clear
9:53 PM 59.0 °F - 28.9 °F 32% 29.82 in 10.0 mi South 4.6 mph - N/A   Clear
10:53 PM 59.0 °F - 32.0 °F 36% 29.83 in 10.0 mi SSW 10.4 mph - N/A   Clear
11:53 PM 57.9 °F - 33.1 °F 39% 29.84 in 10.0 mi South 11.5 mph - N/A   Clear